Weather in Lublin

Poland     51˚14′52″N   22˚34′03″E
temp.,
°C
wind,
m/s
gust,
m/s
humid.,
%
clouds,
%
prec.,
mm/h
press.,
hPa
HPBL,
m
27 november, fri
fri2701:00+2˚wsw6107537 0.0 1020312
04:00+3˚wsw51080100 0.1 1020456
07:00+2˚w5989100 0.1 1020362
10:00+4˚w5989100 0.0 1020486
13:00+5˚w5883100 0.1 1020714
16:00+4˚wnw5981100 0.1 1020577
19:00+4˚w4878100 0.1 1020534
22:00+3˚wnw4885100 0.1 1020612
28 november, sat
sat2801:00+3˚w587897 0.2 1019471
04:00+3˚w5886100 0.2 1018720
07:00+1˚wnw488899 0.4 1018363
10:00+1˚nw5796100 0.6 1019377
13:00−1˚n5790100 1.4 1019439
16:00n577591 0.1 1020880
19:00−1˚nnw368496 0.1 1020592
22:00−1˚nnw3591100 0.1 1020393
29 november, sun
sun2901:00−1˚w2497100 0.3 1021261
04:00−1˚wnw249883 0.3 1020178
07:00−1˚wnw249883 0.4 1020193
10:00wnw349299 0.2 1020279
13:00w348897 0.3 1020365
16:00−1˚w249896 0.3 1020163
19:00−1˚n469698 1.1 1021330
22:00−2˚nw2396100 0.1 1022133
30 november, mon
mon3001:00−2˚wnw249497 0.1 1023108
04:00−3˚wnw229526 0.0 102334
07:00−3˚wnw229718 0.0 102635
10:00−1˚w118976 0.1 1027235
13:00wsw228276 0.1 1028463
16:00wsw2379100 0.0 1028229
19:00−1˚sw2376100 0.0 1030172
22:00−1˚s248095 0.0 1030160
1 december, tue
tue101:00−1˚ssw358498 0.0 1029266
04:00−3˚ssw348989 0.0 1028120
07:00−3˚s369087 0.0 1027158
10:00−1˚s467767 0.0 1026444
13:00s467676 0.0 1024450
16:00−2˚sse368279 0.0 1024150
19:00−2˚sse378188 0.0 1024253
22:00−2˚sse3680100 0.0 1024278